Location: Newark
(58.8333°N, 23.5833°E)
Time: 22:16:41
(UTC+00:00)

METEOR M2 - Pass Details

Date: 10 December 2019
Orbit: 819 x 827 km, 98.5° (Epoch: 19 January)

Event Time Altitude Azimuth Distance (km) Brightness Sun altitude
Exits shadow 17:59:54 34° 337° (NNW) 1,333 ? -32.5°
Drops below altitude 10° 18:02:52 10° 341° (NNW) 2,432 ? -32.9°
Sets 18:05:14 0° 343° (NNW) 3,368 ? -33.2°
